軌道要素
Epoch 2022 Jan. 21.0 TT = JDT 2459600.5
T 2022 Feb. 13.49530 TT Rudenko
q 8.4578377 (2000.0) P Q
z -0.0001439 Peri. 91.58497 +0.02461578 -0.96683765
+/-0.0000015 Node 344.96927 -0.20779345 +0.24377775
e 1.0012174 Incl. 78.58003 +0.97786295 +0.07614041
From 168 observations 2021 June 8-2022 Apr. 20, mean residual 0".5.
|